Weather reports worldwide

Advertisment
Lahr, Germany (10805): temperature & dewpoint: 11.07.2018 15:00:00 - 17.07.2018 15:00:00 (CEST)Lahr, Germany (10805): temperature 5cm & temperature -5cm: 11.07.2018 15:00:00 - 17.07.2018 15:00:00 (CEST)Lahr, Germany (10805): temperature -20cm & temperature -100cm: 11.07.2018 15:00:00 - 17.07.2018 15:00:00 (CEST)Lahr, Germany (10805): wind speed & gusts: 11.07.2018 15:00:00 - 17.07.2018 15:00:00 (CEST)Lahr, Germany (10805): wind direction: 11.07.2018 15:00:00 - 17.07.2018 15:00:00 (CEST)Lahr, Germany (10805): reduced air pressure: 11.07.2018 15:00:00 - 17.07.2018 15:00:00 (CEST)Lahr, Germany (10805): visibility: 11.07.2018 15:00:00 - 17.07.2018 15:00:00 (CEST)Lahr, Germany (10805): sunshine duration: 11.07.2018 15:00:00 - 17.07.2018 15:00:00 (CEST)Lahr, Germany (10805): precipitation: 11.07.2018 15:00:00 - 17.07.2018 15:00:00 (CEST)
Date & Time tt [°C] td [°C] tt 5cm [°C] tt -5cm [°C] tt -20cm [°C] tt -100cm [°C] ff [km/h] ff [kn] fx [km/h] fx [kn] dd ppp [hPa] vv [km] sd [min] rr [mm]
17.07.2018 15:00:00 22,2 15,5 19,5 30,5 23,0 20,2 23 13 41 22 W 1015,2 25 40 0,0
17.07.2018 14:00:00 29,0 11,8 32,8 31,5 22,3 20,2 11 6 23 13 WNW 1014,5 34 60 0,0
17.07.2018 13:00:00 27,7 14,0 31,7 29,3 21,7 20,2 11 6 19 10 W 1014,9 43 60 0,0
17.07.2018 12:00:00 26,8 14,1 29,5 26,9 21,2 20,2 10 6 22 12 SSW 1014,9 42 60 0,0
17.07.2018 11:00:00 25,6 15,0 27,7 23,9 20,9 20,2 12 6 22 12 SSW 1015,0 42 60 0,0
17.07.2018 10:00:00 23,9 14,6 25,5 22,6 20,6 20,2 16 9 23 13 SSW 1014,9 10 60 0,0
17.07.2018 09:00:00 21,6 14,3 23,0 20,7 20,5 20,2 11 6 21 11 SSW 1015,2 35 60 0,0
17.07.2018 08:00:00 19,4 14,1 20,2 18,4 20,6 20,2 5 3 9 5 SW 1015,2 19 60 0,0
17.07.2018 07:00:00 17,6 13,0 17,1 16,8 20,9 20,2 5 3 8 5 SSW 1014,9 30 38 0,0
17.07.2018 06:00:00 15,8 12,8 13,8 16,5 21,2 20,2 6 3 12 6 S 1014,5 28 0 0,0
17.07.2018 05:00:00 15,1 12,8 13,6 16,8 21,6 20,2 6 3 8 5 SW 1014,3 26 0 0,0
17.07.2018 04:00:00 15,3 13,1 13,1 17,3 21,9 20,2 2 1 6 3 E 1013,8 25 0 0,0
17.07.2018 03:00:00 16,3 13,7 13,3 17,8 22,3 20,2 3 2 6 3 SSE 1013,7 30 0 0,0
17.07.2018 02:00:00 16,9 13,6 14,6 18,3 22,7 20,2 2 1 12 7 ENE 1013,7 37 0 0,0
17.07.2018 01:00:00 18,5 13,3 16,7 19,0 23,0 20,2 8 4 12 7 S 1013,2 49 0 0,0
17.07.2018 00:00:00 18,7 14,5 15,9 19,7 23,4 20,2 6 3 6 4 SW 1012,9 46 0 0,0
16.07.2018 23:00:00 19,9 14,2 17,0 20,5 23,8 20,2 4 2 6 3 ESE 1012,4 54 0 0,0
16.07.2018 22:00:00 22,1 12,9 18,7 21,5 24,2 20,2 5 3 16 8 NE 1011,6 64 0 0,0
16.07.2018 21:00:00 24,9 12,0 22,0 22,7 24,6 20,2 11 6 24 13 N 1010,8 70 58 0,0
16.07.2018 20:00:00 27,0 11,8 25,7 24,1 24,8 20,2 16 9 28 15 N 1010,3 10 56 0,0
16.07.2018 19:00:00 27,6 12,9 26,8 26,5 24,9 20,2 15 8 23 12 N 1009,8 10 60 0,0
16.07.2018 18:00:00 27,9 11,6 28,1 28,2 24,8 20,2 14 7 28 15 NNE 1010,2 33 60 0,0
16.07.2018 17:00:00 28,3 13,2 29,0 29,4 24,5 20,2 10 6 25 14 NNE 1010,3 41 60 0,0
16.07.2018 16:00:00 27,7 12,8 29,2 30,2 24,1 20,2 10 5 21 11 NE 1010,7 54 57 0,0
16.07.2018 15:00:00 27,1 12,7 29,2 30,9 23,5 20,2 9 5 18 10 NNE 1011,4 10 60 0,0
16.07.2018 14:00:00 26,4 12,7 29,0 31,1 22,9 20,1 5 3 19 10 - 1011,9 10 60 0,0
16.07.2018 13:00:00 25,3 14,0 29,1 29,9 22,2 20,1 7 4 14 8 W 1012,7 35 60 0,0
16.07.2018 12:00:00 24,4 14,3 28,7 28,1 21,6 20,1 5 3 13 7 - 1013,1 10 60 0,0
16.07.2018 11:00:00 23,1 15,5 27,0 25,6 21,2 20,1 5 3 16 9 NW 1013,4 47 60 0,0
16.07.2018 10:00:00 21,3 15,5 24,7 22,6 21,0 20,1 9 5 15 8 SW 1014,0 35 59 0,0
16.07.2018 09:00:00 19,1 15,2 19,5 19,7 21,1 20,1 8 5 12 7 WSW 1014,5 30 41 0,0
16.07.2018 08:00:00 17,2 14,5 17,2 18,1 21,3 20,1 7 4 12 7 WSW 1014,9 25 24 0,0
16.07.2018 07:00:00 15,9 14,3 15,4 17,8 21,5 20,1 9 5 11 6 SW 1015,0 23 0 0,0
16.07.2018 06:00:00 16,2 15,1 15,3 17,9 21,8 20,1 7 4 10 6 SW 1014,9 15 0 0,0
16.07.2018 05:00:00 16,5 15,3 15,3 18,1 22,1 20,1 3 2 10 6 N 1015,1 15 0 0,0
16.07.2018 04:00:00 16,6 15,1 15,2 18,5 22,3 20,1 3 2 5 3 ESE 1014,7 15 0 0,0
16.07.2018 03:00:00 17,4 15,2 15,9 18,9 22,7 20,1 4 2 7 4 ESE 1014,9 25 0 0,0
16.07.2018 02:00:00 18,2 15,2 16,9 19,3 23,0 20,1 5 3 17 9 W 1014,9 39 0 0,0
16.07.2018 01:00:00 19,7 14,4 18,7 19,8 23,3 20,1 13 7 21 12 SSW 1015,1 47 0 0,0
16.07.2018 00:00:00 20,8 15,1 19,8 20,5 23,7 20,1 12 6 21 12 SSW 1014,8 33 0 0,0
15.07.2018 23:00:00 20,4 15,5 19,3 21,0 24,1 20,0 6 3 15 8 E 1015,3 26 0 0,0
15.07.2018 22:00:00 21,3 15,4 20,4 21,7 24,4 20,0 14 8 19 10 W 1014,9 28 0 0,0
15.07.2018 21:00:00 22,5 15,7 21,5 22,7 24,7 20,0 11 6 23 13 NNW 1014,5 25 0 0,0
15.07.2018 20:00:00 24,2 12,7 23,0 24,3 25,0 20,0 16 9 22 12 N 1014,0 45 9 0,0
15.07.2018 19:00:00 24,3 15,8 24,2 25,4 25,1 20,0 10 6 33 18 WNW 1013,2 39 1 0,0
15.07.2018 18:00:00 26,6 14,7 26,2 27,0 25,1 20,0 5 3 19 10 ENE 1012,7 37 17 0,0
15.07.2018 17:00:00 27,2 17,9 29,5 28,1 25,1 20,0 14 8 24 13 WNW 1013,3 36 27 0,0
15.07.2018 16:00:00 26,3 14,2 26,7 27,8 24,9 20,0 7 4 15 8 NW 1013,2 44 0 0,0
15.07.2018 15:00:00 28,3 14,4 29,5 31,5 24,4 20,0 4 2 15 8 NNW 1013,4 55 56 0,0
15.07.2018 14:00:00 27,1 13,1 29,0 31,8 23,7 20,0 5 3 13 7 - 1014,1 10 60 0,0
15.07.2018 13:00:00 25,8 12,3 29,1 30,5 23,1 20,0 4 2 9 5 - 1014,8 10 59 0,0
15.07.2018 12:00:00 24,7 15,5 27,4 28,2 22,6 20,0 5 3 11 6 ESE 1015,6 35 52 0,0
15.07.2018 11:00:00 22,9 15,1 26,9 25,6 22,4 19,9 4 2 13 7 WSW 1015,9 31 60 0,0
15.07.2018 10:00:00 20,2 15,4 23,3 21,9 22,5 19,9 10 5 27 15 W 1016,0 21 31 0,0
15.07.2018 09:00:00 18,0 16,0 17,6 19,4 22,9 19,9 15 8 37 20 W 1016,0 18 0 1,4
15.07.2018 08:00:00 22,5 11,2 16,2 19,2 23,3 19,9 20 11 - - SSW 1015,6 4,5 0 9,5
15.07.2018 07:00:00 17,4 15,4 16,3 20,1 23,6 19,9 5 3 29 16 WSW 1016,9 1,3 0 8,0
15.07.2018 06:00:00 18,3 14,0 17,9 21,0 23,9 19,9 11 6 16 9 ESE 1016,2 18 0 0,0
15.07.2018 05:00:00 17,5 14,8 16,8 21,2 24,2 19,9 7 4 16 9 WSW 1016,4 15 0 0,0
15.07.2018 04:00:00 15,9 13,6 14,2 21,6 24,6 19,9 6 3 9 5 N 1015,6 17 0 0,0
15.07.2018 03:00:00 16,7 14,4 15,4 22,4 24,9 19,9 5 3 7 4 N 1015,7 20 0 0,0
15.07.2018 02:00:00 17,0 14,6 15,4 23,0 25,3 19,9 4 2 4 2 NE 1015,9 21 0 0,0
15.07.2018 01:00:00 19,2 15,0 17,4 23,8 25,6 19,9 0 0 5 3 N 1016,0 25 0 0,0
15.07.2018 00:00:00 18,7 14,6 16,7 24,4 26,0 19,9 3 1 4 2 ENE 1015,8 31 0 0,0
14.07.2018 23:00:00 20,6 13,8 17,2 25,5 26,3 19,9 0 0 6 3 N 1015,6 10 0 0,0
14.07.2018 22:00:00 22,9 13,7 19,0 27,0 26,6 19,9 4 2 9 5 ENE 1015,3 43 0 0,0
14.07.2018 21:00:00 25,1 13,7 23,0 28,9 26,7 19,8 9 5 20 11 N 1014,8 10 59 0,0
14.07.2018 20:00:00 27,6 12,4 27,0 30,9 26,6 19,8 15 8 23 12 NNE 1014,7 10 60 0,0
14.07.2018 19:00:00 30,1 10,5 31,9 33,0 26,4 19,8 8 4 16 8 NW 1014,8 58 60 0,0
14.07.2018 18:00:00 29,5 9,0 32,9 33,7 26,1 19,8 11 6 24 13 NW 1015,2 10 60 0,0
14.07.2018 17:00:00 29,5 10,9 33,4 34,0 25,7 19,8 13 7 22 12 N 1015,4 41 52 0,0
14.07.2018 16:00:00 29,2 12,5 33,7 34,5 25,1 19,8 15 8 29 16 NNE 1015,9 44 60 0,0
14.07.2018 15:00:00 29,1 12,5 33,5 34,4 24,5 19,8 9 5 25 13 NE 1016,3 59 60 0,0
14.07.2018 14:00:00 28,9 13,4 33,7 33,0 23,8 19,8 11 6 24 13 NNE 1016,8 31 59 0,0
14.07.2018 13:00:00 27,3 13,1 33,5 32,2 23,2 19,8 8 5 18 10 NNW 1017,4 28 60 0,0
14.07.2018 12:00:00 26,0 13,2 33,6 30,0 22,7 19,8 4 2 11 6 NW 1017,9 40 60 0,0
14.07.2018 11:00:00 24,2 13,9 29,9 27,4 22,4 19,8 6 3 13 7 WSW 1018,4 27 60 0,0
14.07.2018 10:00:00 22,2 13,4 27,5 24,7 22,2 19,8 5 3 12 6 WNW 1018,8 29 60 0,0
14.07.2018 09:00:00 20,5 12,8 24,0 22,2 22,3 19,8 6 3 9 5 WSW 1019,0 25 60 0,0
14.07.2018 08:00:00 19,2 13,8 20,6 20,3 22,5 19,8 6 3 10 5 S 1018,9 20 60 0,0
14.07.2018 07:00:00 15,8 13,4 16,0 19,4 22,8 19,8 6 4 9 5 SW 1018,8 20 33 0,0
14.07.2018 06:00:00 16,1 12,7 14,2 19,6 23,1 19,8 8 4 11 6 S 1018,7 25 0 0,0
14.07.2018 05:00:00 15,3 12,7 13,7 20,2 23,5 19,8 5 3 6 3 SSW 1018,6 24 0 0,0
14.07.2018 04:00:00 16,5 13,5 14,5 20,9 23,8 19,8 5 3 11 6 W 1018,6 21 0 0,0
14.07.2018 03:00:00 16,4 13,9 13,6 21,3 24,2 19,8 2 1 4 2 ENE 1018,4 22 0 0,0
14.07.2018 02:00:00 17,0 14,3 14,3 22,0 24,6 19,8 4 2 7 4 WSW 1018,6 25 0 0,0
14.07.2018 01:00:00 17,8 14,3 14,8 22,9 24,9 19,8 4 2 5 3 SSW 1018,2 33 0 0,0
14.07.2018 00:00:00 18,3 14,8 15,7 24,0 25,3 19,8 3 2 8 4 WSW 1018,2 32 0 0,0
13.07.2018 23:00:00 20,9 14,5 19,2 25,1 25,6 19,8 6 3 8 4 WSW 1017,9 49 0 0,0
13.07.2018 22:00:00 23,0 12,7 19,3 26,6 25,8 19,8 2 1 8 4 E 1017,2 48 0 0,0
13.07.2018 21:00:00 26,0 11,2 23,2 28,5 25,9 19,8 5 3 10 5 NW 1016,6 70 35 0,0
13.07.2018 20:00:00 27,9 10,4 27,6 30,6 25,8 19,8 6 4 12 6 W 1016,5 70 59 0,0
13.07.2018 19:00:00 28,4 10,2 30,0 32,3 25,6 19,8 8 4 16 9 - 1016,6 10 59 0,0
13.07.2018 18:00:00 28,6 10,6 31,5 33,5 25,1 19,8 8 4 16 9 WNW 1016,8 66 60 0,0
13.07.2018 17:00:00 28,6 10,5 32,7 34,1 24,6 19,8 4 2 17 9 - 1017,1 10 60 0,0
13.07.2018 16:00:00 28,4 10,0 34,4 33,9 24,0 19,8 6 3 23 12 NW 1017,4 37 54 0,0
13.07.2018 15:00:00 28,2 12,4 33,7 34,0 23,3 19,8 7 4 17 9 NNW 1017,6 40 60 0,0
13.07.2018 14:00:00 26,5 12,0 32,7 33,0 22,5 19,8 9 5 16 9 WNW 1018,4 52 58 0,0
13.07.2018 13:00:00 26,3 11,7 32,2 31,0 21,9 19,8 5 3 18 10 NNE 1018,8 50 60 0,0
13.07.2018 12:00:00 25,3 12,3 32,1 28,7 21,3 19,8 7 4 15 8 NNW 1019,1 40 60 0,0
13.07.2018 11:00:00 23,4 12,6 28,3 26,2 20,9 19,8 5 3 14 8 - 1019,1 10 60 0,0
13.07.2018 10:00:00 21,4 12,7 25,9 23,3 20,7 19,8 4 2 9 5 NNE 1019,4 33 60 0,0
13.07.2018 09:00:00 19,1 13,1 22,4 20,5 20,7 19,8 3 1 8 4 NW 1019,7 28 60 0,0
13.07.2018 08:00:00 16,8 12,6 18,6 18,5 20,9 19,8 8 4 11 6 S 1019,8 22 60 0,0
13.07.2018 07:00:00 15,1 12,9 14,5 17,4 21,2 19,8 3 2 5 3 WSW 1019,7 15 41 0,0
13.07.2018 06:00:00 12,7 11,6 10,5 17,5 21,5 19,8 0 0 6 4 N 1019,7 17 0 0,0
13.07.2018 05:00:00 12,6 12,2 11,3 17,9 21,8 19,8 7 4 8 4 NE 1019,6 10 0 0,0
13.07.2018 04:00:00 13,2 11,9 10,5 18,6 22,2 19,8 3 2 6 4 NE 1019,4 19 0 0,0
13.07.2018 03:00:00 14,5 12,6 11,9 19,2 22,5 19,8 4 2 5 3 W 1019,1 27 0 0,0
13.07.2018 02:00:00 15,3 13,0 12,7 19,9 22,8 19,8 3 1 13 7 WSW 1018,8 28 0 0,0
13.07.2018 01:00:00 16,3 13,3 13,3 20,6 23,2 19,8 4 2 6 3 W 1018,8 28 0 0,0
13.07.2018 00:00:00 16,0 12,9 13,3 21,4 23,5 19,8 2 1 4 2 NNW 1018,8 38 0 0,0
12.07.2018 23:00:00 17,5 13,0 14,6 22,5 23,8 19,8 3 2 6 3 ENE 1018,4 47 0 0,0
12.07.2018 22:00:00 19,4 12,9 15,8 23,9 24,0 19,8 3 2 8 4 NE 1017,8 58 0 0,0
12.07.2018 21:00:00 21,9 12,5 19,7 25,7 24,1 19,8 7 4 16 9 NNE 1017,2 56 57 0,0
12.07.2018 20:00:00 24,0 11,3 23,8 27,6 24,0 19,8 11 6 21 11 NE 1016,8 62 60 0,0
12.07.2018 19:00:00 24,7 11,8 25,9 29,3 23,7 19,8 11 6 20 11 NNW 1016,6 10 60 0,0
12.07.2018 18:00:00 24,5 11,0 27,5 30,3 23,4 19,8 10 5 24 13 N 1016,6 47 60 0,0
12.07.2018 17:00:00 24,9 13,3 28,9 30,8 22,9 19,8 9 5 34 18 N 1016,8 44 60 0,0
12.07.2018 16:00:00 23,7 12,0 28,7 30,1 22,4 19,8 15 8 26 14 NNW 1017,4 10 46 0,0
12.07.2018 15:00:00 22,7 11,9 25,1 29,8 21,9 19,8 13 7 22 12 N 1017,4 51 30 0,0
12.07.2018 14:00:00 23,0 12,4 27,8 29,3 21,3 19,8 10 5 21 11 N 1017,6 34 45 0,0
12.07.2018 13:00:00 22,0 12,5 26,7 28,1 20,6 19,8 10 5 21 11 NE 1018,0 34 41 0,0
12.07.2018 12:00:00 20,9 11,5 26,8 26,7 20,1 19,8 8 5 16 8 N 1018,1 34 56 0,0
12.07.2018 11:00:00 19,9 11,1 23,6 24,2 19,7 19,8 8 4 20 11 - 1017,9 10 55 0,0
12.07.2018 10:00:00 19,3 10,4 23,2 21,3 19,6 19,8 5 3 12 7 S 1018,1 38 60 0,0
12.07.2018 09:00:00 16,8 10,6 20,0 18,5 19,6 19,8 5 3 13 7 SW 1018,1 10 50 0,0
12.07.2018 08:00:00 15,1 10,5 17,1 16,8 19,8 19,8 6 4 8 5 WSW 1017,8 22 60 0,0
12.07.2018 07:00:00 12,5 9,4 12,5 15,6 20,0 19,8 2 1 5 3 NNE 1017,8 25 39 0,0
12.07.2018 06:00:00 10,1 8,8 8,0 15,6 20,3 19,8 4 2 6 3 S 1017,9 27 0 0,0
12.07.2018 05:00:00 10,3 8,6 7,7 16,0 20,7 19,9 4 2 5 3 W 1017,6 26 0 0,0
12.07.2018 04:00:00 11,4 9,4 8,0 16,5 21,0 19,9 4 2 6 3 W 1017,8 28 0 0,0
12.07.2018 03:00:00 12,4 9,4 9,8 17,1 21,3 19,9 6 3 10 5 SSE 1017,8 33 0 0,0
12.07.2018 02:00:00 12,1 9,8 9,2 17,7 21,7 19,9 0 0 7 4 N 1017,9 34 0 0,0
12.07.2018 01:00:00 13,4 10,2 10,7 18,5 22,0 19,9 4 2 8 4 S 1017,9 37 0 0,0
12.07.2018 00:00:00 13,8 10,0 10,5 19,3 22,3 19,9 2 1 5 3 N 1018,0 45 0 0,0
11.07.2018 23:00:00 15,1 10,1 11,1 20,3 22,6 19,9 4 2 8 4 S 1017,7 60 0 0,0
11.07.2018 22:00:00 16,6 10,0 12,9 21,7 22,8 19,9 5 3 10 6 NE 1017,3 70 2 0,0
11.07.2018 21:00:00 19,3 9,8 17,0 23,5 22,9 19,9 8 4 14 7 NNE 1016,8 70 60 0,0
11.07.2018 20:00:00 21,2 7,6 21,1 25,2 22,8 19,9 9 5 18 10 NNW 1016,6 70 60 0,0
11.07.2018 19:00:00 21,4 7,2 22,5 26,5 22,7 19,9 11 6 26 14 N 1016,6 70 50 0,0
11.07.2018 18:00:00 21,4 8,0 23,6 27,2 22,4 19,9 12 6 21 12 NNW 1016,3 49 40 0,0
11.07.2018 17:00:00 21,2 8,6 24,1 28,1 22,0 19,9 12 6 23 12 NNW 1016,5 43 44 0,0
11.07.2018 16:00:00 21,3 9,2 24,9 27,0 21,6 19,9 15 8 23 12 NNW 1016,6 40 25 0,0
11.07.2018 15:00:00 21,0 10,2 26,3 26,6 21,2 19,9 11 6 22 12 NW 1016,8 38 26 0,0

tt = temperature
td = dewpoint
tt 5cm = temperature 5cm
tt -5cm = temperature -5cm
tt -20cm = temperature -20cm
tt -100cm = temperature -100cm
ff = wind speed
fx = gusts
dd = wind direction
ppp = reduced air pressure
vv = visibility
sd = sunshine duration
rr = precipitation

Next stations